Regional Weather Roundup
Issued by NWS Charleston, WV

Home | Current Version | Previous Version | Graphics & Text | Print | Product List | Glossary On
Versions: 1 2 3 4 5 6 7 8 9 10 11 12 13 14 15 16 17 18 19 20 21 22 23 24 25 26 27 28
000
ASUS41 KRLX 301510
RWRRLX
West Virginia Regional Weather Roundup
National Weather Service Charleston WV
1100 AM EDT SAT APR 30 2016

Note: "fair" indicates few or no clouds below 12,000 feet with no
significant weather and/or obstructions to visibility.

WVZ003-301600-
Northern Panhandle of West Virginia

CITY           SKY/WX    TMP DP  RH WIND       PRES   REMARKS
WHEELING         N/A     55  46  71 NE7       30.09F
$$

WVZ009-301600-
Northwest West Virginia

CITY           SKY/WX    TMP DP  RH WIND       PRES   REMARKS
PARKERSBURG    CLOUDY    58  49  72 NE5       30.09F
$$

WVZ006-301600-
Western West Virginia

CITY           SKY/WX    TMP DP  RH WIND       PRES   REMARKS
HUNTINGTON     CLOUDY    58  51  78 NE5       30.03S
$$

WVZ015-301600-
West Central West Virginia

CITY           SKY/WX    TMP DP  RH WIND       PRES   REMARKS
CHARLESTON     PTSUNNY   59  51  75 NE6       30.03F
$$

WVZ022-031-301600-
North Central West Virginia

CITY           SKY/WX    TMP DP  RH WIND       PRES   REMARKS
CLARKSBURG     CLOUDY    62  50  64 CALM      30.08R
MORGANTOWN       N/A     65  47  52 VRB5      30.09S
$$

WVZ025-035-042-045-301600-
Southern West Virginia

CITY           SKY/WX    TMP DP  RH WIND       PRES   REMARKS
BECKLEY        PTSUNNY   61  52  72 E8        30.08S
LOGAN          NOT AVBL
BLUEFIELD        N/A     59  51  75 SE14G21   30.09S
LEWISBURG      CLOUDY    58  53  86 SE3       30.12S
$$

WVZ047-301600-
Northern Mountains of West Virginia

CITY           SKY/WX    TMP DP  RH WIND       PRES   REMARKS
ELKINS         CLOUDY    60  48  64 SW6       30.09S
$$

WVZ052-301600-
Eastern Panhandle of West Virginia

CITY           SKY/WX    TMP DP  RH WIND       PRES   REMARKS
MARTINSBURG    CLOUDY    51  49  92 NE6       30.17F FOG
PETERSBURG     CLOUDY    57  52  85 CALM      30.15S HAZE
$$




USA.gov is the U.S. government's official web portal to all federal, state and local government web resources and services.